sat.trackr.live / text

‹ back to catalog

SENTINEL-5P

NORAD 42969 · 2017-064A

PAYLOAD ACTIVE UNKNOWN

§ Identity

Operator
Country
ESA
Launch date
2017-10-13
Launch site
PLMSC
Launch vehicle
Mass (kg)
RCS (m²)

Purposes: earth_obs

External: N2YO · Heavens-Above · Gunter

§ Orbital elements

Epoch: 2026-09-12T16:11:26.518272Z

Period
101.44 min
Inclination
98.7975°
Eccentricity
0.0001177
Mean motion
14.19531183 rev/d
Perigee alt
826.1 km
Apogee alt
827.8 km
Semi-major
7,205.1 km
B*
3.2191e-5
RAAN
197.2005°
Arg perigee
76.7884°
Mean anomaly
283.3424°
Rev number
46,197

§ Raw data

SENTINEL-5P1 42969U 17064A   26255.67461248  .00000024  00000+0  32191-4 0  99912 42969  98.7975 197.2005 0001177  76.7884 283.3424 14.19531183461976

JSON: /api/v1/satellites/42969 · /tle

For live sub-satellite position, see the globe view (requires WebGL).

§ Visibility from observer

Set your observer location to see the next 7 days of passes ≥ 10°. The values pass through the URL so the page stays shareable.

No JS? Fill the form by hand. The geolocation button needs JavaScript.